This demonstration page uses our WeatherBlox Daily Observations layout. Learn more.

Left ArrowRight Arrow

Hourly Observations for August 29, 2016

Temp ( °F °C ) Dew Point ( °F °C ) Humidity (%) Winds ( mph kmh ) Pressure ( in mb ) Visibility ( mi km ) Precip ( " mm )
12:51 am 00:51 Clear 78 25.6 40 4.4 26 26 NNW 3 6 29.86 1011 10 16 0.00 0.00
1:51 am 01:51 Clear 71 21.7 42 5.6 35 35 Calm 29.87 1011 10 16 0.00 0.00
2:51 am 02:51 Clear 69 20.6 42 5.6 38 38 ESE 5 7 29.87 1012 10 16 0.00 0.00
3:51 am 03:51 Clear 69 20.6 42 5.6 38 38 Calm 29.87 1012 10 16 0.00 0.00
4:51 am 04:51 Clear 67 19.4 42 5.6 41 41 NNE 7 11 29.89 1012 10 16 0.00 0.00
5:51 am 05:51 Clear 66 18.9 42 5.6 42 42 SSW 5 7 29.91 1013 10 16 0.00 0.00
6:51 am 06:51 Sunny 69 20.6 45 7.2 42 42 Calm 29.92 1013 10 16 0.00 0.00
7:51 am 07:51 Sunny 77 25 46 7.8 33 33 SE 6 9 29.92 1013 10 16 0.00 0.00
8:51 am 08:51 Sunny 82 27.8 47 8.3 29 29 ESE 9 15 29.93 1014 10 16 0.00 0.00
9:51 am 09:51 Sunny 84 28.9 47 8.3 27 27 SSE 6 9 29.93 1013 10 16 0.00 0.00
10:51 am 10:51 Sunny 89 31.7 49 9.4 25 25 SSE 10 17 29.90 1012 10 16 0.00 0.00
11:51 am 11:51 Sunny 90 32.2 49 9.4 24 24 VRB 3 6 29.88 1012 10 16 0.00 0.00
12:51 pm 12:51 Sunny 93 33.9 45 7.2 19 19 undefined N/A 29.84 1011 10 16 0.00 0.00
1:51 pm 13:51 Sunny 93 33.9 42 5.6 17 17 Calm 29.83 1010 10 16 0.00 0.00
2:51 pm 14:51 Sunny 94 34.4 40 4.4 15 15 SSW 6 9 29.81 1009 10 16 0.00 0.00
3:51 pm 15:51 Sunny 95 35 40 4.4 15 15 VRB 3 6 29.79 1009 10 16 0.00 0.00
4:51 pm 16:51 Sunny 95 35 39 3.9 14 14 VRB 3 6 29.78 1009 10 16 0.00 0.00
5:51 pm 17:51 Sunny 94 34.4 39 3.9 15 15 SSW 7 11 29.78 1009 10 16 0.00 0.00
6:51 pm 18:51 Clear 91 32.8 42 5.6 18 18 ESE 8 13 29.79 1009 10 16 0.00 0.00
7:51 pm 19:51 Clear 88 31.1 44 6.7 22 22 E 8 13 29.79 1009 10 16 0.00 0.00
8:51 pm 20:51 Clear 86 30 43 6.1 22 22 E 9 15 29.82 1010 10 16 0.00 0.00
9:51 pm 21:51 Clear 82 27.8 43 6.1 25 25 ESE 5 7 29.85 1011 10 16 0.00 0.00
10:51 pm 22:51 Clear 81 27.2 46 7.8 29 29 SE 8 13 29.86 1011 10 16 0.00 0.00
11:51 pm 23:51 Clear 79 26.1 46 7.8 31 31 ESE 9 15 29.88 1012 10 16 0.00 0.00

Powered by AerisWeather